logo tempoitalia

Diretta Meteo Samos, Grecialunedì 31 agosto ore 08:50

Mappa
Sereno 26 °C Sereno 24 Ore: T.min 24 T.max 31
Ponente Nord/Nord-Est Km/h 14.8 Punto di rugiada: 17 °C Umidità: 57% Visibilità: 10 Km
Il sole sorge alle: 06:41 Il sole tramonta alle: 19:43
31 Agosto 2026 08:50 tempo osservato: Sereno Sereno 26 57 1012 vento: Nord N/NE 14.8
31 Agosto 2026 08:20 tempo osservato: Sereno Sereno 26 50 1012 vento: Nord N 11.1
31 Agosto 2026 07:50 tempo osservato: Sereno Sereno 25 57 1012 vento: Nord N/NE 9.3
31 Agosto 2026 07:20 tempo osservato: Sereno Sereno 25 53 1012 vento: Nord N 7.4
31 Agosto 2026 06:50 tempo osservato: Sereno Sereno 24 60 1012 vento: Nord N 7.4
31 Agosto 2026 06:20 tempo osservato: Sereno Sereno 24 60 1012 vento: Nord NE 7.4
31 Agosto 2026 05:50 tempo osservato: Sereno Sereno 24 60 1012 vento: Nord N 5.5
31 Agosto 2026 05:20 tempo osservato: Sereno Sereno 25 61 1012 vento: Nord N 5.5
31 Agosto 2026 04:50 tempo osservato: Sereno Sereno 26 50 1012 vento: Nord NE 7.4
31 Agosto 2026 02:50 tempo osservato: Sereno Sereno 26 54 1013 vento: Nord NE 13
30 Agosto 2026 23:50 tempo osservato: Sereno Sereno 27 47 1012 vento: Nord N 11.1
30 Agosto 2026 22:50 tempo osservato: Sereno Sereno 27 50 1011 vento: Nord N 14.8
30 Agosto 2026 21:50 tempo osservato: Sereno Sereno 28 45 1011 vento: Nord N 14.8
30 Agosto 2026 21:20 tempo osservato: Sereno Sereno 29 42 1011 vento: Nord N 27.8
30 Agosto 2026 20:50 tempo osservato: Sereno Sereno 29 39 1011 vento: Nord N 20.3
30 Agosto 2026 20:20 tempo osservato: Sereno Sereno 29 39 1011 vento: Nord N/NO 24
30 Agosto 2026 19:50 tempo osservato: Sereno Sereno 29 42 1011 vento: Nord N/NO 24
30 Agosto 2026 19:20 tempo osservato: Sereno Sereno 29 42 1011 vento: Nord N/NO 18.5
30 Agosto 2026 18:50 tempo osservato: Sereno Sereno 30 37 1011 vento: Nord NO 22.2
30 Agosto 2026 18:20 tempo osservato: Sereno Sereno 30 37 1011 vento: Nord N/NO 18.5
30 Agosto 2026 17:50 tempo osservato: Sereno Sereno 30 37 1011 vento: Nord N/NO 16.7
30 Agosto 2026 17:20 tempo osservato: Sereno Sereno 30 37 1011 vento: Nord N/NO 22.2
30 Agosto 2026 16:50 tempo osservato: Sereno Sereno 31 33 1011 vento: Nord NO 27.8
30 Agosto 2026 16:20 tempo osservato: Sereno Sereno 31 33 1011 vento: Nord N/NO 24
30 Agosto 2026 15:50 tempo osservato: Sereno Sereno 31 33 1011 vento: Nord NO 24
30 Agosto 2026 15:20 tempo osservato: Sereno Sereno 31 33 1012 vento: Nord NO 22.2
30 Agosto 2026 14:50 tempo osservato: Sereno Sereno 30 37 1012 vento: Nord N/NO 24
30 Agosto 2026 14:20 tempo osservato: Sereno Sereno 30 35 1012 vento: Nord N/NO 22.2
30 Agosto 2026 13:50 tempo osservato: Sereno Sereno 29 48 1012 vento: Nord N/NO 22.2
30 Agosto 2026 13:20 tempo osservato: Sereno Sereno 29 48 1012 vento: Nord N/NO 18.5
30 Agosto 2026 12:50 tempo osservato: Sereno Sereno 29 48 1012 vento: Nord N 20.3
30 Agosto 2026 12:20 tempo osservato: Sereno Sereno 29 48 1013 vento: Nord N 18.5
30 Agosto 2026 11:50 tempo osservato: Sereno Sereno 28 51 1013 vento: Nord N 16.7
30 Agosto 2026 11:20 tempo osservato: Sereno Sereno 28 51 1013 vento: Nord N 20.3
30 Agosto 2026 10:50 tempo osservato: Sereno Sereno 27 50 1013 vento: Nord N 22.2
30 Agosto 2026 10:20 tempo osservato: Sereno Sereno 27 47 1013 vento: Nord N 16.7
30 Agosto 2026 09:50 tempo osservato: Sereno Sereno 27 47 1013 vento: Nord N 16.7